Regional Weather Roundup
Issued by NWS

Home | Current Version | Previous Version | Text Only | Print | Product List | Glossary Off
Versions: 1 2 3 4 5 6 7 8 9 10 11 12 13 14 15 16 17 18 19 20 21 22 23 24 25 26 27 28 29 30 31 32 33 34 35 36 37 38 39 40 41 42 43 44 45 46 47 48 49 50

000
ASUS43 KLSX 290559
RWRMO

WEATHER SUMMARY FOR MISSOURI
NATIONAL WEATHER SERVICE SPRINGFIELD MO
100 AM CDT SUN MAR 29 2015

NOTE: "FAIR" INDICATES FEW OR NO CLOUDS BELOW 12,000 FEET WITH NO
       SIGNIFICANT WEATHER AND/OR OBSTRUCTIONS TO VISIBILITY.
       CURRENT SKY AND/OR WEATHER CONDITIONS ARE NOT AVAILABLE FOR
       CHILLICOTHE AND FARMINGTON.

MOZ001>031-035>038-043-044-053-054-290700-
...NORTHERN AND WESTERN MISSOURI...

CITY           SKY/WX    TMP DP  RH WIND       PRES   REMARKS
KANSAS CTY INT CLEAR     40  32  73 SE16      30.04F
6HR MIN TEMP:  40; 6HR MAX TEMP:  50;

KANSAS C DTWN  CLEAR     42  32  67 SE9       30.07F
6HR MIN TEMP:  42; 6HR MAX TEMP:  52;

LEE`S SUMMIT   CLEAR     39  32  76 SE10G22   30.07F
6HR MIN TEMP:  39; 6HR MAX TEMP:  50;

ST JOSEPH      CLEAR     42  31  64 S13       30.03F
6HR MIN TEMP:  42; 6HR MAX TEMP:  51;

CHILLICOTHE      N/A     41  31  67 S10       30.11F
6HR MIN TEMP:  40; 6HR MAX TEMP:  48;

KIRKSVILLE     CLEAR     34  25  69 SE16      30.13F WCI  24
6HR MIN TEMP:  32; 6HR MAX TEMP:  43;


$$
MOZ066>068-077>081-088>096-101>105-290700-
...SOUTHWEST MISSOURI...

CITY           SKY/WX    TMP DP  RH WIND       PRES   REMARKS
SPRINGFIELD    CLEAR     35  30  82 SE22G29   30.13F WCI  23
6HR MIN TEMP:  35; 6HR MAX TEMP:  43;

JOPLIN         CLEAR     40  32  73 SE15G22   30.09F
6HR MIN TEMP:  40; 6HR MAX TEMP:  54;


$$
MOZ032>034-039>042-045>050-055>058-069>072-290700-
...CENTRAL MISSOURI...

CITY           SKY/WX    TMP DP  RH WIND       PRES   REMARKS
COLUMBIA       CLEAR     36  30  79 SE14      30.18F WCI  27
6HR MIN TEMP:  35; 6HR MAX TEMP:  46;

JEFFERSON CITY FAIR      36  29  75 E8        30.21F WCI  30
6HR MIN TEMP:  35; 6HR MAX TEMP:  47;

ROLLA          CLEAR     34  28  79 S14       30.19F WCI  25
6HR MIN TEMP:  34; 6HR MAX TEMP:  45;

SEDALIA        CLEAR     38  31  76 SE14      30.14F WCI  30
6HR MIN TEMP:  38; 6HR MAX TEMP:  48;

OSAGE BEACH    CLEAR     36  28  75 SE9       30.18F WCI  29

$$
MOZ051-052-059>065-290700-
...EAST CENTRAL MISSOURI...

CITY           SKY/WX    TMP DP  RH WIND       PRES   REMARKS
ST LOUIS INTL  CLEAR     38  15  39 SE9       30.27F
6HR MIN TEMP:  38; 6HR MAX TEMP:  44;

SPIRIT OF STL  CLEAR     36  17  46 SE5       30.26F
6HR MIN TEMP:  36; 6HR MAX TEMP:  44;

ST CHARLES     CLEAR     31  24  75 SE6       30.27F WCI  25
6HR MIN TEMP:  31; 6HR MAX TEMP:  41;


$$
MOZ072>076-082>087-097>100-106>115-290700-
...SOUTH CENTRAL AND SOUTHEAST MISSOURI...

CITY           SKY/WX    TMP DP  RH WIND       PRES   REMARKS
CAPE GIRARDEAU CLEAR     32  25  75 SE8       30.32S WCI  25
6HR MIN TEMP:  30; 6HR MAX TEMP:  43;

FARMINGTON     CLEAR     32  25  74 S7        30.29F WCI  26
6HR MIN TEMP:  32; 6HR MAX TEMP:  43;

POPLAR BLUFF   CLEAR     34  31  88 CALM      30.30F
6HR MIN TEMP:  34; 6HR MAX TEMP:  44;

WEST PLAINS    CLEAR     32  28  85 SE5       30.25F WCI  27
6HR MIN TEMP:  32; 6HR MAX TEMP:  37;


$$


USA.gov is the U.S. government's official web portal to all federal, state and local government web resources and services.